Temperature
-10 -10 -10 -10 -10 -10 -9 -9 -9 -8 -7 -6 -5 -5 -5 -4 -3 -2 -1 1 3 4 6 7 8 10 11 12 13 13 13 14 14 14 15 15 15 15
-10 -10 -10 -10 -10 -9 -9 -9 -9 -8 -8 -7 -6 -6 -5 -5 -4 -2 -1 1 3 4 5 7 8 9 10 11 12 13 13 13 14 14 14 14 14 14
-10 -10 -10 -10 -10 -9 -9 -9 -9 -9 -8 -7 -7 -6 -6 -5 -4 -2 -1 0 2 3 5 6 7 8 10 11 12 12 13 13 13 13 14 14 14 14
-11 -10 -10 -10 -10 -10 -10 -9 -9 -9 -9 -8 -7 -7 -6 -5 -4 -3 -1 0 1 3 4 6 7 8 9 10 11 12 13 13 13 13 13 13 13 14
-11 -11 -11 -11 -11 -10 -10 -10 -10 -9 -9 -9 -8 -7 -6 -5 -4 -3 -1 -0 1 3 4 5 7 8 8 9 11 11 12 12 12 12 12 13 13 13
-12 -12 -12 -11 -11 -11 -10 -10 -10 -10 -9 -9 -9 -8 -7 -6 -5 -3 -2 -0 1 2 4 5 6 7 8 9 10 11 12 12 12 12 12 12 12 13
-12 -12 -12 -12 -11 -11 -11 -11 -11 -11 -10 -10 -9 -9 -8 -7 -6 -4 -3 -1 1 2 4 5 6 7 8 8 9 10 11 12 12 12 12 12 12 12
-12 -12 -12 -12 -11 -11 -11 -12 -11 -11 -11 -10 -10 -10 -9 -8 -7 -5 -4 -2 1 2 3 5 6 7 8 8 9 10 11 12 12 12 12 12 12 12
-12 -12 -12 -12 -12 -11 -12 -12 -12 -11 -11 -11 -11 -11 -10 -9 -8 -6 -4 -3 -1 1 3 4 5 6 8 8 8 9 10 11 12 12 12 12 12 12
-12 -12 -12 -12 -12 -12 -12 -12 -12 -12 -11 -11 -11 -11 -10 -9 -8 -7 -5 -3 -1 1 2 4 5 6 7 7 8 9 10 11 11 12 12 12 12 12
-12 -12 -13 -12 -12 -12 -12 -12 -12 -11 -11 -11 -11 -10 -10 -9 -8 -7 -5 -4 -2 0 2 3 5 6 6 7 7 8 9 10 11 11 11 11 11 11
-12 -12 -12 -12 -12 -13 -13 -13 -12 -12 -11 -10 -10 -10 -10 -9 -8 -7 -5 -4 -3 -0 1 3 4 5 6 6 7 8 9 10 10 11 11 11 11 11
-12 -12 -12 -13 -13 -13 -13 -13 -13 -12 -11 -11 -11 -10 -10 -9 -8 -7 -5 -4 -3 -1 1 2 3 5 6 6 7 7 8 9 10 10 11 11 11 11
-12 -12 -13 -13 -13 -13 -13 -13 -13 -12 -12 -12 -11 -11 -10 -9 -7 -6 -5 -4 -2 -1 0 1 2 4 5 6 6 7 8 9 9 10 10 10 10 10
-12 -12 -13 -13 -13 -13 -13 -13 -13 -12 -12 -12 -12 -12 -11 -9 -8 -6 -5 -3 -2 -1 -0 1 2 3 4 5 6 7 7 8 9 9 10 10 10 10
-12 -12 -13 -13 -13 -13 -13 -13 -13 -13 -13 -13 -12 -12 -10 -9 -8 -6 -5 -4 -2 -1 -0 0 1 2 4 5 6 7 7 7 8 8 9 9 9 9
-11 -12 -12 -13 -13 -13 -13 -13 -13 -13 -13 -13 -12 -11 -10 -9 -8 -7 -5 -4 -3 -2 -1 0 1 2 3 4 5 6 7 7 7 8 8 8 8 8
-11 -12 -12 -13 -13 -13 -13 -13 -13 -13 -13 -13 -12 -12 -11 -10 -9 -7 -6 -4 -3 -2 -1 -0 1 1 2 3 4 5 6 6 7 7 8 7 7 7
-11 -12 -12 -13 -13 -13 -13 -13 -13 -13 -13 -13 -12 -12 -11 -11 -10 -9 -7 -5 -4 -3 -2 -1 0 1 2 2 2 4 5 5 6 6 6 7 6 5
-11 -12 -12 -12 -12 -13 -13 -13 -13 -13 -13 -13 -12 -12 -12 -11 -11 -10 -8 -7 -5 -3 -2 -1 -0 1 1 2 2 2 3 4 5 5 5 5 4 3
-11 -11 -12 -12 -12 -12 -12 -12 -13 -13 -13 -13 -13 -12 -12 -12 -11 -10 -9 -8 -6 -4 -3 -2 -1 -0 1 1 1 1 1 2 3 5 4 3 2 2
-11 -11 -11 -11 -11 -12 -12 -12 -12 -12 -12 -13 -13 -12 -12 -12 -12 -11 -10 -9 -8 -6 -5 -3 -2 -1 -0 0 1 0 0 0 1 2 3 4 3 1
-11 -11 -11 -11 -11 -11 -11 -11 -12 -12 -12 -12 -12 -12 -12 -12 -12 -12 -11 -10 -9 -8 -6 -5 -4 -2 -2 -1 -1 -1 -1 -1 -1 -0 -0 1 2 3
Wind_Speed
12 12 11 10 10 10 10 10 11 13 14 14 11 10 10 11 14 14 14 17 19 18 17 14 11 10 10 12 13 16 20 24 27 30 31 33 34 34
11 12 11 10 10 9 9 9 9 11 13 13 14 14 14 13 15 15 15 19 20 18 16 14 11 9 9 11 13 16 18 20 25 28 30 31 32 31
14 14 14 14 12 11 10 9 9 10 12 14 13 14 16 15 13 12 13 12 11 15 15 14 11 9 9 9 13 16 18 19 22 26 28 28 29 30
15 15 15 14 16 13 12 12 10 11 12 15 14 13 15 14 13 13 11 10 10 12 14 13 11 9 9 9 12 15 18 19 20 22 25 24 25 26
14 15 15 16 17 14 14 13 11 11 11 12 13 12 11 10 12 11 11 9 9 10 12 12 12 10 9 9 11 15 18 21 22 22 23 23 23 26
13 14 14 15 17 16 14 15 13 13 12 11 11 10 10 11 9 8 8 7 8 7 8 9 9 10 9 9 10 14 18 23 25 25 24 23 24 25
13 14 15 18 20 16 14 14 14 12 11 11 10 10 9 10 9 8 9 9 8 4 5 6 8 8 7 7 9 12 17 22 27 28 27 26 25 25
13 14 15 16 20 20 19 18 16 14 13 11 9 11 11 11 10 10 9 6 4 3 4 5 7 7 6 5 6 11 15 20 24 26 28 27 27 26
13 14 14 15 19 15 16 18 16 16 15 12 11 11 12 12 12 11 10 8 7 7 5 4 5 7 5 5 8 9 13 18 21 24 26 27 27 26
12 13 15 16 17 19 15 15 14 12 13 10 10 11 11 11 11 11 11 11 10 9 6 3 2 4 4 5 8 9 11 15 19 22 24 26 27 26
11 12 14 16 22 24 17 16 16 14 14 16 16 14 14 14 12 8 8 6 4 3 2 2 1 1 3 4 6 9 10 12 16 19 23 25 26 26
10 11 14 18 22 22 16 15 17 16 15 14 13 12 10 10 11 7 6 6 4 3 4 4 2 0 2 2 3 5 6 9 13 17 20 24 26 18
10 10 11 20 21 20 18 15 18 17 13 13 11 10 9 8 8 8 6 6 6 4 5 6 3 3 1 2 2 3 5 5 7 9 16 22 25 19
9 10 12 19 19 18 16 19 21 17 11 11 11 10 11 11 10 10 9 8 9 10 10 7 3 3 2 2 2 3 4 5 6 6 9 15 19 20
8 12 15 17 16 13 17 20 17 12 12 12 12 12 11 12 11 10 9 7 8 8 8 7 5 4 2 1 2 3 4 4 6 8 9 10 11 15
9 11 13 13 12 13 14 13 11 12 12 12 12 12 12 11 11 10 9 8 4 3 3 4 4 3 1 1 2 3 4 5 6 9 10 8 8 11
10 8 8 9 10 10 10 11 11 12 12 12 12 12 12 12 12 11 9 7 5 4 4 3 1 3 5 5 3 4 7 8 9 11 13 12 9 10
11 9 9 9 9 10 10 11 11 12 12 12 12 13 13 13 12 11 10 8 6 5 4 3 1 1 3 7 12 4 6 8 9 11 14 16 11 9
9 9 9 9 9 9 9 10 10 11 11 11 12 13 12 12 12 12 11 10 8 6 5 4 3 1 4 4 7 13 5 9 11 12 12 14 13 11
9 10 10 9 8 8 8 9 9 10 11 11 11 12 12 12 12 12 11 12 9 7 6 6 5 4 3 4 4 6 14 6 13 16 15 16 15 21
10 10 10 9 8 8 7 7 8 9 10 10 10 12 12 12 12 12 11 14 11 8 8 6 6 5 3 5 8 6 9 17 12 14 19 20 18 15
10 10 10 9 9 8 7 7 7 8 9 9 10 10 11 11 12 12 11 11 10 9 7 6 5 4 3 7 11 11 12 14 20 25 20 12 9 11
10 10 10 9 9 8 7 6 7 6 7 8 8 9 10 10 10 10 11 10 10 10 8 7 6 7 8 10 13 14 16 15 13 15 15 22 28 33
Wind_Direction
309 303 296 293 288 284 279 277 283 296 301 305 308 308 307 299 295 294 291 290 293 295 293 286 279 271 252 223 207 209 210 206 200 196 197 198 199 198
334 329 322 315 311 307 300 294 290 290 293 299 305 304 306 299 294 291 286 286 283 282 281 279 271 265 257 229 205 198 202 202 196 192 193 195 194 193
341 338 335 332 332 330 323 313 305 301 297 300 303 306 307 304 300 292 283 277 273 268 272 273 261 255 250 235 207 197 193 193 191 187 187 189 190 187
338 338 338 336 335 335 333 330 322 312 304 304 307 310 309 309 305 297 285 272 267 265 264 267 256 243 242 240 215 198 189 188 189 184 182 182 184 181
336 337 336 335 335 336 335 334 328 322 313 306 308 312 312 317 313 303 290 276 272 262 257 254 245 233 229 236 222 201 185 183 183 184 180 180 180 179
336 335 333 333 333 337 337 337 334 326 322 316 314 317 319 325 324 319 312 303 286 268 256 243 232 220 217 227 223 204 188 182 181 181 179 178 178 177
339 336 333 336 337 340 338 339 337 332 328 323 320 323 328 334 333 324 315 307 283 272 268 235 216 204 202 215 223 207 192 186 182 180 178 176 174 175
340 338 336 337 339 341 339 342 340 336 334 330 322 323 324 326 326 322 320 317 290 339 307 245 210 198 188 193 206 202 190 184 181 178 176 173 172 174
338 338 339 340 343 341 344 343 338 337 336 331 319 319 318 322 321 318 318 312 297 311 314 258 207 198 181 183 191 198 189 182 179 177 173 169 168 171
333 336 338 339 341 350 347 341 337 335 335 329 320 317 315 316 313 307 302 299 284 268 257 266 210 189 168 169 183 190 185 179 176 176 174 171 168 168
328 333 336 338 344 352 349 342 339 341 340 335 331 324 323 323 324 319 311 305 287 281 274 280 290 176 157 165 176 182 179 173 172 173 174 171 168 166
329 334 336 341 347 351 350 345 344 343 339 335 333 332 330 328 332 325 310 299 295 305 347 335 334 47 128 135 159 166 168 167 167 170 172 171 168 169
329 334 336 342 348 350 350 349 347 345 337 335 335 338 340 338 336 327 305 281 279 286 347 349 335 352 76 112 134 159 155 149 158 165 168 168 168 170
329 333 337 343 347 349 350 351 352 349 344 342 344 346 346 343 337 327 311 281 258 263 291 311 314 341 1 108 128 133 134 135 136 145 158 160 161 157
337 338 341 345 346 347 349 353 354 351 349 348 348 346 343 338 336 335 328 308 271 255 263 264 268 297 324 25 113 128 117 108 129 134 141 152 154 149
345 341 342 345 347 349 350 351 353 352 352 348 345 344 346 348 351 350 345 340 327 303 279 278 270 272 313 328 125 121 118 126 126 122 117 113 121 134
348 344 349 349 352 353 353 353 353 353 354 351 351 351 353 355 356 355 353 351 356 349 346 347 5 82 62 38 106 108 119 118 122 123 116 104 89 111
355 352 352 350 350 350 350 351 354 355 353 351 353 355 355 356 356 357 360 1 0 354 352 347 350 85 67 49 28 82 109 115 115 117 121 117 101 89
358 353 351 350 347 346 347 348 350 351 350 352 355 356 356 357 359 0 2 2 1 358 356 353 350 11 115 87 20 17 84 122 119 113 114 119 116 109
354 349 347 346 345 343 343 345 346 349 353 353 356 357 357 359 1 2 3 3 0 1 6 13 15 17 84 112 94 33 26 91 127 120 114 108 102 104
347 344 342 342 341 340 338 339 342 347 352 352 356 357 358 360 2 2 2 3 8 9 12 10 4 17 72 98 99 73 49 49 82 123 130 126 122 120
341 339 338 336 337 336 334 335 338 345 351 354 356 358 358 0 1 2 5 5 7 7 9 10 12 29 62 112 113 105 91 79 67 66 67 91 129 140
336 334 333 332 333 332 330 329 332 341 348 351 354 357 359 1 3 5 7 9 10 12 16 29 47 66 82 105 113 111 104 98 92 83 70 79 94 110
Height
1422 1417 1412 1408 1404 1400 1397 1394 1391 1385 1379 1375 1374 1372 1370 1368 1366 1365 1365 1366 1368 1371 1374 1378 1383 1389 1394 1401 1407 1413 1421 1429 1438 1448 1457 1466 1475 1484
1423 1417 1412 1407 1402 1398 1394 1391 1387 1384 1378 1372 1370 1367 1365 1363 1361 1360 1360 1361 1363 1365 1369 1373 1378 1383 1388 1394 1400 1407 1413 1420 1429 1439 1449 1458 1468 1476
1424 1418 1412 1407 1402 1397 1392 1388 1384 1381 1376 1369 1366 1363 1360 1358 1356 1356 1355 1356 1358 1360 1364 1368 1372 1377 1382 1387 1394 1400 1407 1413 1420 1429 1440 1450 1460 1470
1423 1417 1411 1406 1401 1396 1391 1386 1382 1378 1374 1367 1362 1359 1356 1353 1351 1351 1351 1352 1353 1356 1359 1362 1367 1372 1377 1382 1388 1394 1401 1407 1414 1421 1432 1442 1453 1462
1421 1415 1410 1405 1400 1395 1390 1384 1379 1375 1370 1365 1360 1356 1352 1350 1348 1347 1347 1348 1349 1351 1354 1357 1362 1367 1372 1376 1382 1389 1396 1403 1409 1417 1425 1435 1445 1455
1420 1414 1409 1404 1399 1393 1388 1383 1377 1372 1368 1363 1358 1354 1350 1347 1345 1344 1344 1344 1345 1347 1350 1353 1357 1363 1367 1372 1378 1383 1390 1397 1405 1413 1420 1430 1439 1449
1419 1413 1408 1403 1398 1393 1387 1381 1375 1370 1365 1361 1357 1352 1349 1345 1343 1341 1341 1341 1342 1344 1346 1349 1353 1358 1363 1367 1372 1378 1385 1393 1400 1409 1416 1425 1435 1445
1417 1412 1407 1401 1396 1390 1384 1379 1374 1369 1364 1359 1355 1351 1348 1345 1342 1340 1339 1339 1340 1342 1343 1346 1349 1353 1359 1364 1368 1375 1381 1388 1396 1404 1412 1422 1430 1440
1417 1411 1406 1400 1394 1388 1382 1376 1371 1366 1362 1358 1353 1349 1346 1343 1340 1338 1337 1337 1337 1338 1340 1342 1346 1350 1355 1360 1366 1371 1378 1384 1392 1400 1409 1417 1426 1436
1416 1410 1405 1399 1393 1387 1380 1374 1369 1364 1359 1354 1350 1346 1343 1340 1338 1336 1335 1335 1334 1336 1338 1340 1343 1347 1352 1358 1363 1369 1375 1381 1388 1396 1405 1413 1423 1432
1414 1409 1404 1398 1392 1386 1379 1373 1367 1361 1356 1351 1347 1343 1339 1336 1335 1334 1333 1334 1334 1334 1336 1338 1341 1345 1350 1355 1361 1366 1372 1378 1385 1393 1401 1410 1420 1430
1412 1408 1402 1397 1391 1385 1378 1372 1366 1359 1353 1348 1344 1340 1337 1334 1332 1331 1331 1332 1332 1333 1335 1337 1339 1344 1349 1353 1358 1364 1369 1375 1383 1390 1399 1407 1416 1426
1410 1406 1401 1396 1390 1384 1378 1372 1366 1359 1353 1347 1343 1339 1335 1332 1330 1329 1329 1330 1331 1332 1334 1336 1338 1342 1345 1351 1356 1361 1367 1373 1380 1388 1396 1405 1413 1422
1409 1404 1399 1394 1388 1382 1377 1372 1365 1359 1353 1348 1343 1338 1333 1330 1328 1327 1327 1328 1330 1331 1333 1336 1338 1341 1345 1349 1354 1360 1366 1372 1379 1386 1394 1402 1411 1419
1409 1403 1398 1392 1387 1382 1377 1371 1365 1359 1354 1348 1343 1338 1334 1330 1328 1326 1326 1327 1329 1331 1333 1335 1338 1341 1344 1348 1352 1357 1363 1370 1377 1384 1392 1400 1407 1415
1408 1403 1398 1393 1388 1383 1377 1372 1366 1361 1356 1350 1345 1340 1336 1332 1328 1327 1326 1327 1329 1331 1333 1336 1338 1341 1344 1347 1352 1356 1361 1367 1375 1382 1390 1398 1406 1414
1409 1403 1398 1393 1389 1384 1379 1374 1368 1363 1358 1352 1347 1342 1337 1333 1330 1329 1328 1329 1330 1332 1334 1336 1338 1341 1344 1348 1352 1355 1360 1367 1374 1380 1387 1395 1404 1411
1410 1405 1400 1395 1390 1386 1381 1376 1371 1366 1361 1355 1350 1345 1341 1337 1334 1332 1330 1330 1331 1333 1335 1337 1339 1342 1345 1348 1352 1355 1359 1366 1373 1380 1386 1393 1402 1411
1411 1406 1402 1397 1393 1388 1384 1379 1375 1370 1365 1360 1355 1350 1345 1341 1338 1335 1333 1332 1333 1334 1336 1338 1341 1343 1345 1348 1353 1357 1361 1366 1372 1380 1387 1395 1402 1412
1412 1407 1403 1399 1395 1390 1386 1382 1378 1373 1369 1364 1359 1355 1350 1346 1342 1339 1336 1335 1335 1335 1337 1339 1341 1344 1346 1350 1355 1360 1364 1368 1372 1379 1387 1394 1404 1414
1413 1409 1405 1401 1396 1392 1388 1385 1381 1377 1373 1368 1364 1359 1355 1351 1347 1344 1341 1339 1338 1337 1338 1340 1342 1345 1348 1352 1356 1361 1366 1371 1375 1379 1387 1394 1403 1413
1414 1410 1406 1402 1398 1394 1390 1386 1383 1380 1376 1372 1368 1364 1360 1356 1353 1349 1346 1343 1342 1341 1341 1342 1344 1347 1350 1353 1357 1362 1368 1374 1378 1383 1390 1396 1401 1411
1415 1411 1407 1403 1399 1395 1392 1388 1385 1382 1379 1376 1372 1369 1365 1361 1358 1354 1351 1348 1346 1345 1344 1345 1347 1349 1352 1355 1359 1364 1370 1376 1382 1387 1394 1400 1405 1413